Flag for U.S.A. Weather past 2 weeks in Arlington, Texas, U.S.A.

Now
75 °F

Clear.


Feels Like: 76 °F
Forecast: 78 / 101 °F
Wind: No wind

Location: Arlington Municipal Airport

Current Time: Jul 30, 2015 at 8:08:41 AM

Latest Report: Jul 30, 2015 at 6:53 AM


Visibility: 10 mi

Pressure: 30.03 "Hg

Humidity: 76%

Dew point: 67 °F

Location of ArlingtonLocation

Historic Weather in Arlington — Graph

°F

Arlington temperature yesterday

Maximum temperature yesterday: 101 °F (at 4:53 PM)
Minimum temperature yesterday: 78 °F (at 6:53 AM)
Average temperature yesterday: 89 °F

Past Weeks' High & Low Weather Summary

 TemperatureHumidityPressure
High101 °F (Jul 29, 4:53 PM)79% (Jul 16, 6:53 AM)30.03 "Hg (Jul 16, 6:53 AM)
Low75 °F (Jul 15, 6:53 AM)23% (Jul 25, 4:53 PM)29.76 "Hg (Jul 21, 6:53 PM)
Average88 °F51%29.90 "Hg
* Reported Jul 15 6:53 AM — Jul 30 6:53 AM, Arlington, Weather by CustomWeather, © 2015

Note: Actual official high and low records may vary slightly from our data, if they occured in-between our weather recording intervals... More about our weather records

Advertising

Arlington weather history for previous 24 hours

 ConditionsComfort  
Time TempWeatherWind HumidityBarometerVisibility
6:53 AM
Thu, Jul 30
75 °FClear.No wind76%30.03 "Hg10 mi
5:53 AM75 °FClear.No wind76%30.02 "Hg10 mi
4:53 AM77 °FClear.No wind69%30.01 "Hg10 mi
3:53 AM76 °FClear.No wind77%30.01 "Hg10 mi
2:53 AM78 °FClear.3 mph69%30.01 "Hg10 mi
1:53 AM78 °FClear.No wind69%30.01 "Hg10 mi
12:53 AM80 °FClear.No wind64%30.01 "Hg10 mi
11:53 PM
Wed, Jul 29
82 °FClear.3 mph58%30.01 "Hg10 mi
10:53 PM82 °FClear.3 mph58%29.99 "Hg10 mi
9:53 PM88 °FClear.3 mph43%29.97 "Hg10 mi
8:53 PM91 °FSunny.6 mph39%29.95 "Hg10 mi
7:53 PM97 °FSunny.9 mph29%29.94 "Hg10 mi
6:53 PM99 °FSunny.13 mph28%29.93 "Hg10 mi
5:53 PM101 °FSunny.8 mph25%29.94 "Hg10 mi
4:53 PM101 °FSunny.3 mph25%29.95 "Hg10 mi
3:53 PM100 °FSunny.6 mph27%29.97 "Hg10 mi
2:53 PM100 °FSunny.8 mph24%29.98 "Hg10 mi
1:53 PM98 °FSunny.5 mph31%29.99 "Hg10 mi
12:53 PM96 °FSunny.5 mph37%30.01 "Hg10 mi
11:53 AM93 °FSunny.No wind44%30.02 "Hg10 mi
10:53 AM89 °FSunny.6 mph52%30.02 "Hg10 mi
9:53 AM86 °FSunny.9 mph59%30.02 "Hg10 mi
8:53 AM83 °FSunny.8 mph63%30.01 "Hg10 mi
Weather by CustomWeather, © 2015

See weather overviewHow to use our weather pages